Theta_e
311 309 311 312 314 316 315 314 314 314 316 318 318 321 327 325 325 324 317 317 319 319 322 324 321 320 318 317 317 316 318 317 316 316 317 318 318 317 318 318 318 319 319 319 319 319 319 319 318 319 318 316 316 316 316 315 317 319 317 319 323 325 325 323 322 324 320 320 324 323 323 322 321 322 323 323 322 321 320 322 328 334 334 336 341 347 349
311 309 311 312 314 316 315 314 314 314 317 318 319 323 325 323 325 324 317 318 319 320 322 323 321 318 316 316 317 316 317 316 317 317 316 318 318 317 318 317 317 318 318 319 319 318 320 320 318 319 318 316 316 316 315 316 317 316 318 323 324 323 325 326 325 323 319 320 323 323 323 322 320 321 323 325 323 323 327 326 331 336 334 334 342 347 347
311 309 311 312 315 316 315 314 314 315 318 319 320 324 325 325 327 325 318 317 318 319 320 320 321 319 316 316 316 316 317 316 316 317 316 317 318 317 318 317 317 318 318 319 319 318 321 321 319 318 317 316 316 316 315 316 316 319 328 332 325 322 327 330 329 324 320 322 324 322 322 321 319 321 322 323 322 323 326 325 329 337 338 335 338 342 345
311 309 311 312 315 316 315 314 314 315 319 319 320 323 326 328 330 326 321 319 318 318 316 316 320 319 320 321 317 315 316 315 315 315 316 316 316 317 317 316 317 317 317 318 318 319 321 322 323 321 318 317 315 315 316 315 317 327 335 329 320 323 329 332 332 326 323 326 329 328 324 318 315 318 319 322 322 322 327 327 326 334 339 337 337 341 341
311 309 311 312 315 317 315 314 314 315 319 320 322 325 328 330 329 324 323 325 324 321 317 317 319 320 321 322 318 316 316 315 315 315 315 315 315 316 317 316 317 318 319 320 320 321 321 321 321 320 318 317 315 315 317 315 319 330 329 319 322 327 326 327 328 326 324 325 324 322 322 317 315 316 318 320 322 321 323 323 325 335 341 339 340 341 337
312 309 310 312 315 317 315 314 314 314 316 321 326 330 330 328 325 319 321 324 324 321 318 317 318 316 317 318 316 315 316 316 316 315 315 316 315 318 320 318 317 319 321 324 324 326 326 323 322 322 321 319 316 315 317 315 318 324 320 317 323 324 322 321 320 321 323 322 320 320 320 319 318 318 317 318 320 320 319 319 326 338 340 339 344 342 337
314 308 310 312 314 317 316 315 314 314 315 322 331 333 327 325 325 322 321 322 321 317 314 316 317 314 319 322 317 315 316 315 314 315 317 316 315 318 321 318 317 318 321 326 329 329 329 327 326 326 324 321 321 321 320 318 318 318 317 320 322 322 325 325 319 319 321 319 320 320 318 318 318 318 319 318 318 319 318 321 331 340 340 341 345 343 340
316 309 309 312 313 316 317 315 315 315 316 323 332 329 323 325 328 327 326 326 321 316 314 317 318 316 321 324 318 314 316 315 314 315 317 318 317 317 319 318 318 319 320 325 327 326 328 326 325 325 324 323 325 324 323 321 320 319 317 319 321 322 326 325 321 320 320 318 320 320 318 318 316 316 319 319 317 318 318 323 332 338 339 340 340 340 342
318 310 309 311 312 315 317 316 316 317 320 326 331 328 322 323 326 328 331 331 324 317 317 320 323 321 322 322 318 316 315 314 315 315 314 317 319 318 317 319 321 321 320 322 322 321 323 323 321 321 321 322 323 323 322 321 322 323 320 319 321 323 324 324 323 321 319 317 317 317 317 317 314 314 318 318 316 317 318 321 328 334 336 337 338 338 340
319 310 308 311 312 314 317 317 317 319 321 325 328 329 324 322 324 327 332 335 328 320 318 320 323 323 321 320 318 316 315 316 318 319 316 315 317 318 318 319 322 324 323 320 318 317 317 317 317 317 317 317 317 319 319 317 320 323 322 321 323 323 323 323 322 320 318 317 316 316 315 314 314 315 317 318 318 318 318 319 325 332 335 336 336 338 340
319 311 308 311 312 313 316 317 317 319 320 320 322 328 326 322 325 329 333 335 330 323 322 322 322 322 319 317 317 316 315 316 319 322 320 315 316 318 319 321 325 326 323 319 316 314 314 315 315 315 316 316 315 316 316 314 317 321 321 322 324 324 324 326 324 320 318 317 316 315 314 313 316 318 318 318 318 318 317 318 324 331 335 336 337 339 339
319 311 307 310 311 312 315 317 317 317 318 317 320 326 327 323 326 332 335 335 331 325 324 321 319 319 315 314 317 317 317 317 317 320 319 317 318 319 318 321 325 324 319 316 315 314 314 314 313 314 314 314 315 315 314 314 316 318 318 319 325 327 325 325 324 321 320 320 319 316 315 317 320 320 319 320 318 318 318 320 325 331 334 336 337 337 338
319 311 307 310 311 311 313 316 317 317 317 317 320 325 327 324 327 333 335 335 334 330 324 319 316 317 316 316 318 316 316 316 316 317 318 318 319 319 317 318 320 318 316 315 315 318 320 320 320 320 318 316 316 316 314 314 315 315 315 317 323 326 326 326 324 321 321 321 319 317 318 319 320 320 320 322 323 323 324 325 327 332 335 335 336 337 335
318 310 306 309 311 311 312 315 317 316 316 316 320 326 327 323 327 332 334 334 335 331 325 322 320 318 319 319 317 317 317 316 317 319 318 319 319 317 316 316 316 316 316 316 320 325 325 323 323 323 320 319 321 320 318 317 315 315 318 319 322 325 328 329 328 323 320 319 319 320 320 319 320 321 320 321 324 325 328 328 328 331 334 335 336 336 333
318 309 306 308 310 311 312 313 315 317 316 315 318 325 328 324 324 329 332 334 336 331 324 324 322 320 321 318 317 321 322 319 321 321 317 318 319 316 315 316 315 315 315 318 326 329 328 325 323 323 324 324 323 322 322 321 318 317 318 320 321 323 325 328 328 326 322 318 318 320 320 320 323 323 320 321 321 322 330 331 326 329 333 334 335 334 332
318 310 306 307 310 311 312 312 314 315 316 316 316 322 328 326 323 326 331 334 336 331 326 324 321 320 321 318 316 323 326 325 326 323 319 321 320 316 315 315 315 315 316 321 327 327 326 325 322 323 328 327 323 323 324 322 320 318 318 319 320 322 323 326 327 326 325 320 317 319 322 328 331 327 322 322 320 323 331 327 322 326 331 332 334 334 331
319 311 306 306 309 311 312 312 313 314 315 316 315 318 325 327 323 325 330 333 334 331 326 320 318 320 323 323 321 323 326 326 327 328 328 327 322 317 317 316 315 316 318 322 326 325 324 325 321 322 326 325 322 323 324 322 321 320 319 318 319 322 324 323 321 322 325 322 319 320 325 331 332 326 320 320 320 325 325 318 319 328 331 329 332 332 329
319 312 306 306 308 310 312 311 312 313 314 315 315 317 324 327 324 324 330 332 332 330 326 318 317 320 324 326 325 323 324 324 326 330 330 327 325 322 319 318 319 320 319 322 326 326 325 324 322 321 323 325 325 324 322 321 321 322 322 321 321 322 323 321 319 319 320 320 318 321 326 328 327 324 322 319 319 322 322 320 326 334 333 330 330 328 326
319 313 306 306 307 309 312 312 312 312 313 315 315 316 323 328 325 323 327 331 330 328 326 321 318 319 320 323 324 322 321 321 324 327 327 328 330 326 320 320 322 322 322 323 325 325 324 324 324 323 323 326 327 324 322 322 321 321 322 323 323 323 321 320 319 317 317 317 316 321 329 331 326 324 324 324 325 326 327 330 332 330 328 328 327 325 324
319 314 307 305 307 308 310 312 312 311 312 314 315 316 322 328 327 324 325 327 327 326 324 321 319 319 319 320 322 323 322 323 325 326 326 329 332 327 324 325 321 321 325 326 324 324 323 324 326 325 324 326 328 326 325 324 322 320 320 322 325 325 322 321 320 317 317 316 315 321 330 332 327 327 329 331 333 333 332 330 328 327 327 328 327 326 325
319 316 309 306 306 307 309 312 312 311 312 313 313 317 324 328 326 323 323 324 326 327 325 321 321 321 319 318 318 320 321 323 325 326 327 331 332 328 327 328 324 322 327 327 325 324 324 325 326 324 324 326 327 326 326 325 324 324 322 323 326 327 324 323 323 322 321 318 318 325 331 330 328 331 333 332 335 336 333 330 329 327 327 327 327 328 326
319 317 311 306 306 307 308 311 312 312 313 312 311 317 324 326 324 322 322 323 326 326 324 322 321 320 319 317 316 317 319 319 321 323 325 330 333 329 327 329 328 325 326 327 327 326 327 327 327 326 327 327 326 327 327 325 324 324 324 325 326 326 329 329 328 327 327 326 328 332 332 328 327 330 331 332 333 334 333 331 331 329 327 328 329 327 324
319 317 311 307 306 307 307 310 312 312 313 312 312 314 318 322 324 324 322 323 326 327 325 323 322 320 318 318 316 315 317 318 320 320 322 326 331 329 326 327 326 324 327 330 329 328 328 327 327 327 328 327 326 327 327 325 325 325 324 323 322 324 331 333 330 330 330 327 328 330 329 327 326 327 330 331 330 330 331 331 330 328 327 327 328 326 323
319 318 313 308 307 306 306 309 312 312 312 313 312 312 315 323 326 324 321 323 328 329 327 325 323 322 321 320 317 316 316 317 318 318 319 323 326 328 328 326 324 326 331 330 327 327 327 326 325 325 326 326 326 326 326 327 329 328 325 323 321 322 326 327 327 329 328 325 327 329 329 329 327 325 328 331 330 329 330 329 328 327 326 326 327 326 324
318 318 314 309 307 306 306 308 311 312 312 313 313 313 318 325 325 322 322 326 328 328 328 326 324 322 321 320 318 318 317 317 317 317 317 318 320 322 325 325 323 325 328 327 327 331 330 326 325 325 325 326 327 327 327 329 329 328 326 326 326 325 325 325 326 327 326 326 329 330 328 328 328 327 327 329 329 327 326 327 327 327 325 323 322 323 322
318 317 314 309 307 306 306 307 310 312 312 312 312 313 317 321 324 323 324 325 326 327 327 326 325 323 322 321 319 318 318 318 317 318 317 317 318 318 320 322 323 325 327 327 330 331 329 327 326 326 326 327 327 327 326 328 329 328 327 328 328 325 325 327 327 325 325 327 330 331 328 326 328 329 328 328 329 327 324 324 325 325 324 323 320 320 320
317 317 314 310 307 306 306 307 309 311 312 312 313 313 313 316 322 324 322 323 327 328 326 324 325 324 321 321 321 320 320 319 318 319 318 318 319 318 318 321 325 328 329 330 329 327 326 326 326 326 326 327 328 327 326 326 328 327 327 329 329 327 328 329 328 326 327 327 329 331 331 327 326 328 328 328 329 329 326 325 324 324 325 325 322 320 319
317 317 314 310 307 306 306 307 309 311 312 312 312 313 313 316 322 324 321 321 324 327 324 323 324 323 322 322 321 320 321 320 319 319 319 318 318 318 318 322 326 326 327 328 328 328 328 327 326 327 327 327 328 328 326 326 326 325 327 330 330 330 331 331 329 329 328 327 327 330 330 328 326 327 327 327 327 328 327 326 325 325 325 325 324 322 321
317 317 314 310 307 306 306 307 309 312 313 312 313 316 319 321 322 324 322 320 321 324 326 325 325 324 324 324 322 321 321 321 320 319 319 319 320 319 320 323 325 325 328 331 333 331 330 328 328 328 327 328 328 328 328 328 328 327 328 329 328 328 329 329 329 330 329 328 328 329 328 328 326 325 327 328 326 326 327 326 326 327 324 322 323 323 321
317 316 314 310 308 307 306 307 310 312 312 314 318 322 325 325 323 321 321 320 322 325 327 326 325 324 323 322 321 322 322 320 320 321 322 323 324 324 323 326 327 326 328 332 335 332 328 327 328 327 326 327 329 329 328 328 328 328 329 330 329 329 328 327 327 330 329 327 327 326 326 327 326 323 325 325 323 325 328 327 326 326 324 322 323 323 320
316 315 313 309 307 306 307 309 311 312 313 317 322 325 327 326 323 320 317 319 322 325 326 327 326 324 323 322 322 322 321 321 322 323 324 325 326 325 325 326 327 327 328 331 333 330 326 327 328 327 325 325 327 327 326 326 326 326 327 329 329 328 327 326 325 326 326 325 325 324 324 325 324 322 324 324 321 322 326 326 323 323 323 323 322 321 319
316 314 311 308 307 307 309 312 312 312 314 318 321 323 322 321 319 316 314 317 321 324 326 327 325 324 324 326 325 322 321 322 324 325 326 327 327 327 327 327 327 327 328 329 329 327 325 326 328 327 326 325 326 326 325 325 325 325 325 327 327 326 327 327 326 325 325 324 324 324 324 324 324 323 323 323 321 320 322 323 321 320 321 321 320 319 319
315 313 310 307 307 309 312 313 312 312 313 316 317 318 317 317 317 315 314 317 322 326 327 326 324 324 325 326 327 325 322 324 326 327 328 329 328 326 327 327 327 327 327 326 327 326 324 325 327 327 326 325 325 325 325 325 325 324 325 327 326 324 325 326 325 325 325 324 324 324 324 323 323 322 321 321 320 320 320 320 320 319 320 321 321 321 320
315 311 307 307 310 312 313 315 315 315 316 318 320 319 318 318 318 316 316 319 323 326 325 323 325 326 325 325 328 328 325 324 327 328 329 330 327 325 327 328 326 327 326 325 326 326 324 324 325 326 325 324 324 325 325 324 324 324 325 326 324 323 323 324 324 324 324 323 323 323 322 321 321 321 321 322 321 320 319 320 320 321 321 322 323 322 320
312 308 307 310 312 313 314 317 318 318 320 322 323 321 320 319 317 316 318 322 325 326 326 326 327 328 325 325 329 329 324 323 326 328 328 327 325 325 327 327 326 326 325 324 325 326 325 324 324 325 325 324 324 324 324 324 324 325 324 323 323 323 322 322 323 323 322 321 322 322 321 321 322 322 322 321 320 320 320 321 321 321 321 322 323 322 320
308 307 309 313 313 314 316 319 319 320 322 324 322 320 318 317 317 317 319 321 323 326 328 329 329 328 326 326 328 327 323 323 326 327 325 325 325 325 325 326 326 326 324 324 325 326 325 324 324 324 324 324 323 322 322 322 323 324 323 322 321 321 320 320 320 320 320 320 321 321 321 321 321 321 321 321 319 320 320 320 321 321 321 322 323 323 321
306 309 313 315 316 318 321 322 321 322 323 321 319 317 317 317 320 321 321 321 322 323 325 327 328 327 326 326 327 325 323 324 327 327 325 325 326 326 325 325 326 325 324 325 326 325 323 323 323 324 323 322 319 318 318 318 320 321 321 320 319 319 319 320 319 318 318 318 319 320 320 319 319 320 320 320 320 319 320 320 320 321 322 322 322 322 320
309 313 316 318 320 323 325 324 322 321 320 318 317 319 320 321 322 324 323 322 323 322 323 325 327 326 325 326 326 324 324 325 326 326 326 325 324 325 325 326 326 324 323 323 324 324 323 323 323 323 322 318 316 315 315 315 316 317 317 318 317 317 318 318 317 317 318 318 317 318 317 317 318 318 318 319 320 319 319 319 319 319 320 320 320 319 318
314 316 318 320 322 324 325 324 320 318 319 319 320 322 324 325 325 326 325 324 325 325 325 326 328 327 325 326 325 323 323 325 325 325 326 325 323 323 324 325 324 323 322 322 321 322 323 323 322 322 320 316 315 314 314 314 314 314 314 314 314 314 315 316 315 315 316 316 316 316 316 316 317 317 317 319 320 319 318 318 318 318 319 319 319 318 317
317 319 321 323 323 322 322 320 317 318 321 323 323 324 325 325 325 326 326 326 327 327 327 326 326 326 324 325 326 324 323 323 324 325 325 324 321 322 323 322 321 321 321 320 320 320 322 321 320 320 319 317 315 315 314 314 315 315 314 314 314 314 314 314 314 314 314 314 314 313 313 314 314 314 315 317 318 318 318 318 318 319 318 318 318 318 317
319 321 322 323 323 322 319 318 318 321 323 324 325 325 326 326 326 326 327 327 327 327 326 325 326 327 325 323 325 326 325 323 324 325 325 324 323 322 322 322 321 320 320 320 320 321 322 321 320 319 319 317 315 314 314 314 315 316 315 314 314 313 313 313 313 312 312 313 313 313 312 312 313 313 313 314 314 316 317 317 317 319 319 318 318 317 316
319 319 319 320 321 320 319 320 322 323 324 325 326 325 324 324 326 328 329 327 326 326 327 325 325 327 326 323 323 326 326 324 324 323 323 323 324 322 321 321 322 321 321 321 320 320 320 319 318 318 318 317 315 314 314 315 315 316 315 314 313 313 313 313 312 312 311 311 312 311 310 311 311 311 311 312 312 313 314 315 317 318 318 318 317 316 314
317 316 317 319 321 321 321 323 323 324 324 324 324 324 324 323 325 328 328 326 324 325 326 325 324 323 323 323 325 326 325 323 323 324 324 323 323 322 321 322 322 321 321 320 319 320 319 317 316 316 317 316 315 315 316 315 315 315 315 313 312 312 312 311 311 311 310 309 309 309 309 309 309 309 310 311 311 312 313 314 316 317 318 317 316 314 313
318 319 319 321 322 322 323 324 324 327 328 325 323 324 326 325 325 328 328 326 325 325 324 324 324 323 323 324 325 325 325 324 323 323 323 323 323 321 320 320 320 320 319 318 318 318 316 315 314 315 316 315 314 315 315 315 314 314 313 312 310 310 309 309 309 309 309 308 308 308 308 308 309 309 310 310 311 311 313 314 315 316 316 316 314 312 311
320 322 322 323 323 322 320 320 322 326 327 324 322 324 326 326 326 327 326 324 324 323 323 325 326 325 324 325 324 323 324 324 323 322 323 323 322 320 319 318 317 316 316 315 314 315 314 313 313 315 314 313 313 313 314 314 314 313 312 311 310 309 309 309 309 309 309 308 308 308 308 308 309 309 309 309 310 310 312 314 315 314 314 314 313 311 310
323 322 320 321 322 320 318 319 319 321 323 323 323 325 326 325 325 325 325 324 324 323 323 324 326 325 324 324 323 323 324 323 322 322 323 321 319 319 319 317 315 314 313 311 311 313 313 313 313 313 313 313 313 313 313 313 312 311 311 311 311 310 310 310 309 309 309 309 308 308 308 308 309 309 309 309 310 311 312 314 314 313 313 313 312 311 310
323 321 318 319 320 319 317 318 318 318 320 323 324 325 324 324 324 325 324 324 324 324 325 326 327 325 323 322 320 321 322 322 320 320 319 317 316 316 316 314 313 312 312 312 313 313 312 312 312 313 313 313 312 312 312 311 311 311 310 310 310 310 310 310 309 309 309 309 309 309 309 309 309 309 308 309 310 311 313 314 313 312 312 312 312 311 310
322 319 318 320 321 319 318 318 320 325 328 326 323 323 324 325 326 326 325 324 324 324 324 326 325 323 322 321 319 317 317 318 319 318 316 315 314 314 313 312 311 311 312 313 313 312 312 312 313 313 312 312 311 311 311 311 310 310 310 309 309 309 310 310 310 309 309 309 309 309 309 309 309 308 309 310 311 312 313 313 312 311 312 312 311 310 310
320 319 319 320 320 318 318 319 323 330 331 327 323 323 327 329 329 328 325 326 327 326 324 325 325 322 320 318 316 313 314 315 315 313 313 313 313 313 312 312 312 312 312 312 312 311 311 312 313 313 312 311 311 311 311 310 309 309 309 309 309 309 310 310 310 310 309 309 309 309 309 309 308 308 310 311 312 312 313 313 312 311 311 311 310 309 309
318 318 319 319 318 319 319 320 322 325 326 325 323 324 326 328 329 328 325 327 329 327 325 324 325 322 319 315 312 312 313 314 313 312 312 313 313 313 313 313 312 311 311 311 311 311 312 312 312 312 312 311 311 311 310 310 310 309 309 309 309 310 310 310 310 310 309 309 309 309 309 309 309 309 310 311 311 311 311 311 311 310 310 309 308 308 308
317 317 318 318 318 318 320 322 323 324 324 324 325 326 326 326 327 327 326 326 326 325 323 322 322 320 317 314 313 312 312 313 313 313 313 313 313 313 314 313 312 311 311 310 311 311 312 312 312 312 312 312 311 311 310 310 309 309 310 310 310 310 310 310 310 310 309 309 309 309 309 308 308 308 309 309 309 309 309 308 307 307 307 307 307 307 309
315 315 316 317 316 318 323 328 329 327 325 325 325 326 326 326 327 328 327 325 324 323 321 320 318 316 314 314 314 313 312 313 313 314 313 313 314 314 313 312 311 311 311 311 311 311 312 312 312 312 311 311 311 310 310 309 309 309 310 310 310 310 310 310 310 310 309 309 309 309 308 308 308 308 309 308 308 309 309 308 307 306 306 306 307 308 309
Wind_Speed
24 26 27 27 28 28 30 32 33 36 35 30 24 14 4 1 7 9 1 6 6 6 2 1 2 1 1 0 1 3 4 3 3 2 4 5 3 2 1 2 4 1 2 2 3 6 4 4 3 0 3 6 5 6 9 9 7 5 3 4 7 5 2 2 4 2 3 3 3 3 2 3 3 3 3 2 2 4 4 3 3 4 5 6 5 4 4
24 26 26 27 27 28 29 31 32 34 32 26 18 8 3 2 6 6 4 8 8 5 2 2 1 3 1 1 1 1 4 6 6 5 5 4 3 3 3 2 1 2 2 4 4 4 2 1 1 1 3 3 3 6 8 7 6 4 2 2 4 3 2 2 3 3 4 5 5 4 5 3 2 4 2 2 5 6 4 2 3 4 3 7 6 3 3
23 25 26 26 27 27 28 30 31 32 30 24 13 3 4 4 4 4 4 10 8 2 2 3 1 2 1 1 1 2 2 2 4 5 4 4 4 2 3 3 1 3 6 3 1 2 3 1 1 3 3 2 3 5 6 5 4 3 3 4 3 1 1 2 4 4 3 2 0 2 4 2 2 5 4 3 9 10 5 3 5 3 1 4 7 6 4
23 24 25 26 26 27 28 29 30 31 30 25 11 3 4 3 2 3 1 4 3 1 2 1 4 2 1 2 1 1 4 4 1 3 3 3 4 3 2 1 2 3 3 3 2 4 4 3 2 1 3 1 2 3 3 5 4 6 7 6 4 1 1 3 6 4 1 3 3 3 4 1 1 6 4 6 11 9 4 4 4 4 2 3 7 13 12
22 23 25 25 25 27 28 29 30 30 29 25 11 2 3 2 3 3 2 3 3 1 2 2 4 0 1 1 2 1 3 4 3 2 2 1 2 2 2 4 2 4 2 2 3 6 2 5 4 2 3 2 2 4 2 5 5 7 7 7 5 2 3 4 4 1 4 3 4 7 5 5 7 8 5 4 7 7 5 5 5 7 6 4 6 15 16
21 23 24 25 25 26 27 28 30 29 27 23 10 2 2 3 3 3 3 3 3 4 4 5 4 3 2 1 4 2 4 3 3 3 2 3 4 3 1 2 3 7 7 3 4 7 6 2 4 4 2 0 1 2 4 7 8 6 5 6 4 2 2 6 6 4 5 3 5 7 6 8 9 7 5 5 5 6 4 4 6 7 8 7 8 12 14
21 22 24 24 24 25 27 28 30 29 26 19 6 1 3 4 3 5 6 4 3 3 3 4 3 6 4 3 3 3 5 5 5 4 3 4 3 4 2 3 3 4 5 3 4 4 3 3 4 4 3 3 2 2 4 7 8 7 5 4 3 2 2 6 8 7 5 2 3 5 7 7 7 6 7 8 8 6 4 3 7 9 11 13 12 12 10
21 21 23 23 23 24 25 27 28 29 26 17 7 4 6 5 3 5 6 6 4 2 2 4 1 4 1 1 3 3 5 6 6 5 6 4 2 2 3 6 4 3 5 5 5 5 1 1 3 3 4 5 4 3 3 4 6 7 4 3 3 3 3 5 5 5 6 5 3 3 4 4 5 6 6 6 6 6 5 5 8 9 11 12 13 14 8
20 20 21 22 22 22 23 25 26 27 25 16 7 7 10 9 9 7 4 4 4 2 3 3 0 2 1 1 1 2 5 5 4 4 5 6 6 5 5 6 6 7 9 8 7 6 4 4 5 4 4 3 2 2 2 3 5 5 3 3 3 2 2 4 3 3 4 6 4 3 3 3 4 5 4 3 2 3 3 4 4 6 11 13 12 10 7
19 19 20 20 20 20 21 23 24 24 25 18 6 6 13 13 12 10 4 3 4 3 3 2 1 2 2 3 4 4 5 5 5 3 2 4 6 7 6 5 3 5 8 7 6 7 6 5 5 4 4 4 2 2 2 2 4 4 3 2 2 2 2 3 2 1 2 6 7 4 2 2 3 2 3 3 1 2 3 1 3 7 10 11 8 7 9
18 17 19 19 18 19 18 20 22 22 23 21 9 5 11 12 8 6 4 2 5 4 1 2 2 2 2 1 2 3 5 5 4 2 2 5 5 5 6 5 3 4 5 3 2 3 4 3 3 4 2 3 2 2 1 1 1 3 3 2 2 2 2 3 2 0 2 6 6 2 1 3 3 1 4 5 3 3 1 2 4 9 7 7 8 9 12
17 16 18 18 17 17 16 16 19 19 20 21 12 6 12 16 8 4 3 3 5 5 2 3 2 1 3 3 4 5 6 6 5 3 3 5 6 6 5 5 4 4 2 2 1 1 2 2 2 2 1 1 1 1 0 0 3 2 2 3 3 3 2 3 2 1 2 6 3 2 1 4 1 5 7 6 2 6 4 2 5 10 12 13 13 12 12
16 15 17 18 16 16 15 14 15 16 17 19 16 10 13 17 8 2 3 2 4 7 4 2 2 3 4 5 6 6 7 6 5 4 4 4 5 6 6 5 4 2 1 0 0 1 2 1 1 1 1 1 1 2 3 2 3 1 3 1 3 4 2 2 2 1 1 4 2 3 3 1 4 6 5 6 5 3 4 5 8 9 13 15 13 11 10
14 14 16 18 16 15 15 13 13 15 14 16 17 14 14 17 10 3 3 3 3 6 5 2 2 5 5 5 5 4 5 5 4 4 3 2 4 6 5 4 4 2 1 1 2 1 1 1 1 0 0 1 1 2 2 2 3 0 2 4 4 4 3 2 2 1 1 1 1 0 1 1 3 2 1 2 5 5 6 5 5 7 9 10 10 11 10
13 13 15 17 16 14 14 13 12 13 13 14 15 13 13 17 14 6 3 3 4 4 4 4 4 5 5 4 2 2 2 2 2 1 2 1 4 5 4 5 5 4 2 1 1 1 1 2 2 2 2 1 1 0 1 1 3 2 3 3 2 2 3 2 2 1 2 1 1 2 2 0 3 0 3 4 7 8 7 6 3 4 8 8 7 10 11
12 12 14 16 16 14 13 13 12 12 13 13 14 12 10 14 17 11 5 3 2 3 4 4 4 4 3 1 2 2 1 0 1 3 1 1 2 4 3 4 5 5 3 1 1 1 2 3 2 1 2 2 2 2 1 1 2 3 3 1 2 1 1 1 2 1 3 1 1 0 1 2 4 2 6 7 8 8 8 6 1 2 7 9 7 7 10
11 11 13 15 16 14 13 12 12 12 12 12 13 12 9 11 17 14 6 3 3 4 5 3 4 4 1 1 2 2 1 1 1 2 2 1 1 3 3 3 1 2 4 2 1 2 2 2 3 1 2 2 1 2 1 1 2 2 4 3 1 2 2 1 0 2 3 2 1 0 1 2 3 4 7 7 7 7 8 5 3 5 3 8 7 8 10
10 10 12 14 15 14 13 12 11 11 11 10 11 12 8 9 15 14 6 3 2 3 5 7 6 2 2 1 2 3 2 1 2 1 2 1 1 1 3 2 1 2 3 2 1 2 2 2 3 1 2 1 1 3 2 1 1 1 3 4 2 1 1 2 2 3 3 2 1 0 1 1 0 5 7 5 5 6 6 4 5 5 5 6 8 12 12
10 10 11 13 14 14 13 12 11 11 11 10 9 9 7 7 13 14 7 2 2 3 8 9 5 1 2 2 1 2 2 1 1 1 0 0 2 1 3 2 1 1 1 1 2 1 3 2 2 0 1 0 0 2 3 2 2 1 0 2 3 2 2 2 2 3 2 2 2 1 1 2 1 6 6 6 4 2 3 2 2 5 8 9 11 12 11
10 9 10 11 13 14 13 12 10 10 11 10 10 9 7 6 9 11 8 3 3 4 6 8 10 7 5 4 2 2 3 1 1 1 1 1 2 1 2 1 2 1 1 1 1 2 2 1 1 1 0 1 0 1 2 3 2 2 0 1 2 2 2 2 3 2 2 1 1 1 1 2 2 5 4 5 2 4 2 2 5 7 9 9 9 8 8
10 9 9 10 12 13 13 11 10 9 9 9 9 9 7 6 8 10 9 6 3 2 3 9 15 13 9 8 8 7 5 4 4 4 3 2 2 2 2 1 2 0 1 1 1 1 2 2 2 2 2 1 1 0 1 2 2 3 2 1 2 0 1 1 1 0 1 1 1 2 2 1 5 5 3 2 3 3 3 4 5 6 7 6 6 6 7
10 9 8 9 11 12 13 11 9 8 8 8 8 7 7 9 11 12 12 9 4 5 7 12 14 13 11 10 9 8 8 7 7 6 4 2 1 0 1 1 2 1 1 1 1 2 3 3 2 3 2 1 1 1 0 2 1 2 3 3 1 2 1 2 0 1 1 3 2 3 1 4 7 6 4 5 5 5 6 6 5 5 5 5 5 6 8
10 9 8 8 10 11 12 11 9 8 7 7 7 5 6 10 13 15 14 9 6 8 12 14 13 11 12 11 8 6 5 5 5 5 5 3 2 1 1 1 2 2 3 3 2 2 2 2 2 2 2 1 2 3 3 0 0 1 1 3 2 0 3 3 0 1 1 3 4 4 3 5 8 7 5 6 6 5 5 6 5 4 5 5 5 6 7
10 9 8 8 9 10 11 11 9 8 7 7 6 6 6 8 12 15 13 6 2 4 7 8 6 4 3 3 2 4 4 2 1 3 4 3 1 1 2 2 1 2 3 3 2 2 2 1 2 1 1 2 2 2 3 2 2 3 2 2 2 0 2 2 1 2 2 1 2 4 4 6 8 8 7 7 6 4 4 5 5 4 5 6 6 6 8
9 8 8 7 8 9 10 10 9 7 7 7 6 5 5 6 10 13 10 4 2 3 3 3 3 5 5 4 1 3 4 4 5 3 2 2 3 1 1 2 4 4 2 2 3 3 1 1 1 1 2 3 3 2 2 2 1 2 3 2 1 2 2 1 1 1 1 2 2 3 5 6 7 7 7 6 6 5 6 7 6 5 6 7 7 7 7
9 8 8 7 7 8 9 10 9 8 7 7 6 5 5 5 8 10 8 5 3 2 2 2 4 9 10 6 3 2 4 4 3 4 4 5 4 3 1 4 6 5 3 2 3 3 1 1 2 1 2 2 3 2 2 2 1 2 2 2 1 1 2 2 1 1 1 1 2 4 4 5 5 5 5 5 6 7 7 7 7 6 6 7 7 6 7
9 8 7 7 7 8 9 10 9 8 6 6 6 6 6 4 5 7 6 5 3 1 0 1 2 7 12 13 8 3 5 1 1 1 2 3 4 5 4 3 3 3 2 1 1 1 0 1 1 1 1 2 2 2 2 2 3 2 1 2 2 1 2 3 2 1 1 0 3 4 1 4 4 6 6 5 5 6 6 6 7 7 6 7 7 7 7
9 8 7 7 6 7 8 9 9 8 6 5 5 6 6 2 3 4 4 4 2 1 1 3 5 6 10 13 9 0 3 3 1 1 4 6 5 7 6 4 3 2 2 1 0 1 1 0 1 1 2 2 1 3 3 3 2 1 1 2 3 1 1 2 2 1 1 2 3 3 1 3 4 6 6 6 6 5 4 3 4 6 7 7 7 7 7
9 7 7 6 6 7 8 9 9 7 6 5 5 5 3 2 4 3 3 2 3 3 2 3 5 4 4 6 5 3 2 1 1 3 5 6 4 3 3 4 2 1 2 2 2 2 2 1 1 1 1 1 1 1 2 1 1 1 1 2 3 1 2 3 3 2 2 3 4 4 3 3 3 5 5 5 6 5 3 2 1 2 6 8 8 8 9
8 7 6 6 6 8 8 9 8 6 4 4 4 3 1 2 3 1 1 2 2 3 3 2 2 3 4 4 5 4 2 1 0 3 6 8 8 7 7 7 4 4 4 2 2 2 1 1 2 2 1 2 1 0 0 1 2 2 3 4 3 1 1 2 2 3 2 2 3 4 4 3 3 4 4 4 6 6 4 4 5 4 3 3 4 7 10
7 6 6 6 6 8 9 9 7 4 1 3 3 1 1 1 1 2 2 2 2 2 2 2 2 2 2 3 3 5 5 2 4 7 10 10 9 9 10 9 4 3 4 2 1 2 1 1 1 1 2 2 2 1 1 2 3 3 4 5 3 2 1 1 1 1 3 3 1 1 3 4 3 2 2 1 5 6 4 4 5 6 8 8 5 1 7
6 5 5 6 7 9 9 8 5 3 2 2 2 3 1 0 3 4 2 1 1 2 2 2 2 2 1 1 4 9 10 7 6 6 5 5 5 5 7 7 4 2 4 3 1 1 1 2 2 1 1 2 2 1 2 3 4 4 3 4 3 2 1 1 2 1 1 2 2 2 3 3 1 2 2 3 4 3 2 5 7 8 9 11 9 6 3
5 4 5 6 8 8 7 5 3 3 4 4 4 3 0 2 3 3 1 1 2 4 3 2 2 2 1 1 2 7 9 6 3 3 3 3 3 2 2 3 3 2 3 3 1 0 0 1 1 1 1 1 1 1 2 3 5 6 4 3 3 1 3 3 2 1 2 3 2 1 0 2 2 3 5 5 5 3 3 4 7 8 8 8 8 6 4
4 5 5 7 7 6 4 1 1 1 2 3 2 3 2 3 4 1 2 1 2 5 3 1 2 2 1 0 2 4 7 4 1 1 2 2 2 2 1 2 2 1 2 2 1 0 1 1 1 1 0 1 1 1 3 4 4 4 2 3 4 2 3 2 1 2 2 2 1 1 1 2 3 3 4 4 4 5 5 5 5 6 5 4 5 6 5
5 5 6 6 5 3 1 1 2 0 3 3 2 4 1 4 3 2 4 1 1 3 2 0 1 2 1 1 2 2 4 2 0 1 1 1 2 2 1 1 0 0 1 1 1 2 2 1 1 1 1 2 2 2 3 3 4 4 4 2 2 1 2 2 0 2 2 1 1 1 2 3 4 3 2 2 2 3 4 4 4 5 5 4 4 5 6
5 5 4 3 1 1 1 2 2 2 2 0 1 2 4 5 2 3 3 1 2 2 1 1 0 1 0 1 1 1 2 1 0 1 1 0 0 1 1 0 1 1 1 0 2 3 2 1 1 1 1 2 0 2 4 6 6 5 4 4 4 3 1 3 2 1 0 1 2 2 3 3 2 1 2 2 1 1 2 4 5 5 5 5 5 5 4
5 3 1 2 2 1 2 3 3 3 2 0 2 4 4 1 2 3 3 3 4 3 1 1 1 1 1 1 1 1 1 1 1 2 1 0 1 1 1 1 1 0 1 2 2 2 2 1 2 2 1 2 1 4 6 6 6 4 3 3 3 2 1 2 2 3 3 3 3 3 3 4 3 2 2 3 3 2 1 2 4 4 5 5 4 2 1
2 3 4 2 0 1 1 2 2 2 0 2 3 2 2 2 3 3 3 3 4 4 2 2 1 1 2 2 1 3 2 1 2 2 1 1 1 1 1 1 1 1 1 1 1 2 2 1 2 1 1 2 3 5 6 5 5 6 4 3 3 3 3 3 4 4 3 3 2 3 3 5 5 4 4 3 3 3 3 4 4 5 6 5 4 4 4
4 4 2 2 2 1 1 1 2 2 2 1 1 2 2 3 2 2 2 2 2 2 2 2 2 3 3 3 2 4 3 2 2 1 1 2 2 1 1 1 0 1 2 1 1 1 1 1 1 2 1 2 2 3 3 3 4 5 5 5 6 7 6 4 4 5 4 4 4 3 2 3 5 5 5 4 4 4 4 5 5 6 6 6 5 6 6
4 2 3 2 1 2 2 2 2 1 0 1 3 2 1 2 2 1 1 2 1 1 1 2 2 2 3 3 2 2 3 2 2 1 1 1 1 1 1 1 1 1 2 1 1 1 1 0 0 1 2 1 2 2 2 1 2 2 1 1 3 7 7 5 5 7 6 5 7 8 7 7 6 6 6 6 5 4 4 5 6 7 9 8 7 7 7
2 3 2 2 1 2 3 2 2 2 2 2 2 1 1 1 1 1 1 1 1 1 2 2 2 2 3 3 2 1 2 2 2 1 1 1 0 1 1 1 1 1 2 1 1 1 1 0 1 1 2 1 2 3 3 3 1 2 3 5 7 8 9 8 8 9 8 6 5 7 9 10 9 8 8 9 7 6 6 6 5 7 10 11 10 10 11
3 3 5 6 5 2 3 3 3 3 2 1 0 1 2 1 1 0 1 1 0 0 1 2 1 1 2 2 2 1 1 2 1 1 1 1 1 0 0 0 1 1 1 1 2 1 1 1 1 1 1 2 4 3 3 4 4 4 5 7 8 9 9 8 8 9 11 10 8 7 9 11 11 11 13 13 11 10 10 9 7 9 11 12 11 12 14
3 5 6 6 4 3 2 2 2 1 0 0 1 1 2 2 1 0 1 1 1 1 1 1 1 1 1 1 1 2 1 1 1 1 1 1 1 1 1 1 1 2 2 1 1 2 1 1 1 1 2 3 3 3 4 4 4 4 5 7 9 10 10 9 9 11 12 12 11 11 11 11 13 14 15 13 11 11 11 11 11 11 12 13 13 14 15
3 3 3 3 2 1 1 0 1 0 1 1 1 1 2 2 1 0 1 1 1 1 1 2 1 1 1 1 1 1 1 1 1 1 1 1 1 1 1 1 1 2 2 1 1 2 2 1 1 1 2 2 2 3 4 4 4 4 6 7 9 11 11 10 10 10 10 10 12 12 12 12 13 14 14 12 11 11 11 11 9 8 10 14 15 16 17
2 2 1 1 2 0 1 1 1 1 0 2 2 2 2 1 1 0 1 2 1 1 2 2 1 1 1 1 2 1 1 1 1 1 1 1 1 1 1 1 1 1 2 2 1 3 2 2 2 2 1 1 1 2 3 4 4 5 5 6 7 8 8 8 8 8 8 9 11 11 11 12 12 12 11 12 13 14 13 11 8 10 14 16 16 16 17
3 2 2 1 1 1 0 0 1 2 2 2 1 0 1 1 1 1 2 2 2 1 1 1 1 2 2 2 2 2 2 2 1 2 2 1 1 1 1 1 1 2 2 2 1 3 3 2 3 3 2 3 3 4 4 5 5 6 6 7 7 8 8 9 9 9 10 12 13 12 12 13 13 12 12 12 13 13 13 10 9 16 19 18 17 18 17
3 2 0 1 0 1 2 2 3 2 2 1 1 1 1 0 1 2 3 3 1 0 1 1 1 2 2 1 1 1 1 1 1 1 2 1 1 1 1 1 2 2 1 0 2 3 3 3 3 3 3 3 4 5 5 5 6 7 7 8 8 8 10 10 10 11 14 15 15 13 13 14 14 14 14 13 12 11 10 8 10 16 17 18 20 21 19
2 2 1 1 0 2 3 3 2 1 1 2 2 0 1 0 1 2 3 2 1 1 1 1 2 2 1 1 1 1 1 1 1 1 1 1 1 1 2 2 2 1 1 2 3 3 3 3 3 2 2 3 4 4 5 5 7 8 9 9 9 9 10 9 9 11 14 15 14 12 12 14 14 14 13 11 10 9 9 10 14 17 18 19 20 20 17
3 2 1 1 2 3 4 2 1 1 0 2 2 1 0 0 1 2 2 2 1 0 1 2 1 0 0 1 0 1 1 1 1 0 1 1 2 2 2 2 1 2 3 3 3 3 3 3 3 3 3 4 4 5 5 6 7 8 9 10 10 10 11 11 11 11 13 16 15 14 14 14 14 13 9 6 5 5 8 13 18 20 22 22 22 21 19
3 2 1 2 3 4 4 4 2 1 1 0 2 1 0 1 2 2 2 2 1 1 2 2 0 0 0 1 1 0 1 1 1 1 2 3 3 2 1 2 2 3 3 3 3 3 3 3 3 3 3 4 5 5 6 7 8 8 9 11 12 13 13 13 13 12 13 15 16 15 14 13 11 8 7 7 7 6 6 9 14 16 18 20 23 23 21
1 2 2 3 5 5 4 3 2 2 2 2 2 1 1 2 2 1 0 2 3 3 2 2 2 2 1 1 1 1 1 0 1 2 2 1 2 2 2 3 3 3 4 4 4 3 3 3 3 3 2 4 4 5 6 8 9 10 11 12 14 14 14 14 13 11 11 12 13 12 12 11 8 7 9 10 10 10 8 8 12 15 15 17 19 20 18
1 2 3 4 5 5 3 1 2 1 2 3 2 1 2 2 1 2 2 2 3 3 2 1 1 1 0 1 0 1 0 1 3 3 1 1 2 2 3 3 3 3 4 4 4 3 3 3 3 2 2 3 4 5 7 9 10 12 13 13 14 14 13 12 12 10 9 9 8 6 7 6 6 11 14 13 11 10 9 10 15 18 16 15 15 15 15
Wind_Direction
350 353 354 352 354 355 355 357 357 356 356 357 359 352 304 257 302 290 166 143 212 246 267 219 190 135 56 259 350 343 328 358 3 10 23 349 355 92 102 27 44 126 183 325 29 87 71 22 11 310 74 58 37 21 16 12 12 14 18 342 326 325 346 339 307 290 125 144 163 138 56 21 354 263 241 317 12 91 107 161 145 91 99 100 79 86 132
352 353 354 352 353 354 355 357 357 359 1 360 358 348 304 305 284 275 146 167 221 246 240 249 199 112 80 274 145 68 340 356 1 10 31 9 5 50 62 80 306 279 75 47 37 76 80 303 326 39 67 48 21 34 33 26 22 23 37 291 304 332 354 2 349 355 49 37 13 3 352 358 332 272 260 59 48 53 60 86 77 69 121 127 119 104 116
353 354 354 352 353 354 355 357 356 357 0 360 0 332 289 306 268 254 175 191 213 237 258 247 77 92 162 183 144 146 119 29 344 338 8 16 353 0 67 98 260 347 34 27 302 80 74 51 62 78 78 31 26 52 52 52 40 4 315 290 297 347 339 26 60 50 55 73 55 297 292 282 281 278 271 67 56 51 60 78 67 62 74 112 123 121 120
354 354 353 352 353 354 354 355 356 356 358 356 352 278 282 324 288 287 248 209 207 144 276 309 67 21 305 81 8 160 110 105 32 325 352 12 342 340 54 100 164 93 27 290 261 85 102 159 204 95 90 65 19 20 47 83 49 334 332 346 350 11 356 48 80 66 8 193 208 280 279 244 300 286 290 53 57 55 68 83 82 114 105 67 127 137 143
354 354 353 352 354 355 354 354 355 356 356 354 348 264 255 289 289 319 9 326 329 70 320 12 86 83 341 56 278 280 98 113 100 35 8 8 325 351 30 326 320 96 76 290 10 19 24 164 156 61 66 73 343 323 348 66 32 340 359 20 16 39 18 18 59 55 266 275 348 337 337 8 341 309 310 40 67 61 30 48 99 129 110 78 139 141 141
354 354 354 354 354 356 356 355 355 356 355 352 346 249 262 300 308 345 28 310 322 35 0 346 63 70 29 330 289 348 67 78 72 46 44 63 10 339 79 318 344 74 78 79 54 14 353 36 60 42 42 66 280 316 4 26 9 1 40 43 35 74 17 347 353 323 271 285 350 340 353 10 346 335 4 20 62 82 33 29 89 119 125 136 159 143 135
352 355 355 354 356 358 357 357 358 357 356 354 348 249 325 341 336 344 355 331 322 38 344 309 34 47 16 344 342 29 59 62 65 35 20 75 43 321 36 49 10 63 81 89 97 77 20 2 19 10 351 356 11 11 22 18 2 8 42 43 41 62 3 347 355 339 301 299 11 360 8 10 349 12 49 29 23 41 23 37 87 109 130 143 142 122 112
350 355 356 354 357 359 358 1 2 1 4 8 17 38 13 359 342 336 339 330 326 25 301 274 124 93 75 3 6 30 57 60 66 36 12 45 68 334 49 57 30 57 79 74 84 93 93 4 24 10 351 0 12 10 20 14 355 360 15 19 53 69 343 333 3 0 335 339 5 359 348 342 338 359 37 44 18 1 10 66 99 115 128 134 124 110 102
347 354 358 355 356 360 1 3 4 7 13 18 17 22 11 348 331 330 316 309 329 340 295 282 134 96 97 81 15 52 77 59 43 38 24 28 31 29 62 66 48 59 64 60 62 55 39 41 36 12 351 5 24 32 27 8 347 351 2 359 34 74 319 313 23 47 332 317 310 270 267 298 320 331 351 33 33 339 2 60 89 114 127 125 116 114 127
345 353 357 356 356 360 2 3 5 9 18 24 15 354 1 351 336 336 325 290 311 292 262 289 37 76 50 36 30 52 76 56 32 37 57 52 34 23 43 58 63 78 65 45 37 22 10 23 20 345 340 0 18 70 47 2 344 354 20 12 344 5 345 328 14 67 280 290 285 258 232 288 293 302 320 305 290 34 356 343 91 99 123 133 129 137 144
345 351 356 357 356 359 1 3 5 8 16 23 12 317 352 357 333 327 340 312 307 301 294 19 40 121 113 69 57 72 81 69 50 29 65 80 64 30 34 43 53 81 65 19 2 355 338 346 338 321 332 340 347 56 70 276 12 10 2 344 312 342 6 337 329 2 278 288 288 280 144 249 246 55 9 301 239 153 241 286 94 97 111 126 128 137 138
344 348 354 357 355 357 360 0 3 5 9 13 4 318 344 354 336 307 337 322 309 321 26 60 27 73 94 90 81 69 69 67 55 48 57 61 59 51 47 43 49 83 81 315 278 241 265 227 233 266 200 192 332 43 283 7 84 66 300 304 330 5 21 338 330 15 314 314 332 104 187 249 224 53 19 339 267 166 176 346 62 103 118 118 123 137 137
343 346 352 356 356 357 358 356 359 2 4 4 359 346 350 357 357 323 336 343 313 325 350 57 62 72 82 86 81 67 66 63 43 47 67 63 61 60 51 46 54 89 173 259 21 287 274 182 140 321 42 95 356 263 234 171 114 183 260 340 19 14 18 330 306 219 270 327 15 139 199 270 53 50 16 360 15 87 110 43 34 82 113 119 126 135 129
340 345 350 356 357 356 357 355 352 355 1 2 359 1 5 8 10 346 331 352 309 312 331 6 63 69 57 61 83 93 87 73 36 21 28 60 78 68 59 64 52 4 345 42 29 329 300 91 87 316 156 106 41 310 278 141 130 117 8 41 34 31 37 9 343 257 242 307 337 150 141 72 51 61 41 18 33 60 98 89 43 63 98 114 126 129 122
337 343 349 354 357 357 358 356 347 348 356 359 1 9 14 9 7 352 310 318 306 314 348 17 53 71 59 41 56 111 113 123 141 85 10 1 75 67 54 56 31 354 354 61 340 311 273 249 210 168 153 140 131 152 322 109 123 92 63 37 0 84 99 79 79 319 308 350 332 343 63 269 271 94 76 59 63 70 84 94 77 78 99 107 117 122 121
334 340 347 354 357 358 0 357 348 346 350 353 360 9 13 8 4 353 318 290 306 315 322 345 20 47 75 63 337 347 69 113 152 125 127 292 114 111 85 58 29 346 335 349 307 315 303 280 268 150 161 201 163 141 140 122 124 118 113 102 317 21 83 56 93 286 307 357 184 285 74 266 276 31 61 57 65 68 67 67 358 238 132 131 135 118 111
332 336 344 353 356 358 1 358 351 349 350 351 350 351 3 11 3 352 326 289 316 292 277 318 11 7 21 94 341 341 72 50 13 113 141 337 94 126 111 93 83 357 357 357 269 285 284 265 277 263 164 190 123 102 98 94 115 144 145 145 334 344 336 319 221 248 281 303 269 49 93 246 265 63 64 62 64 62 69 77 284 281 127 133 138 113 104
330 332 340 350 354 358 1 359 353 350 351 350 339 336 353 14 4 357 339 296 324 305 312 357 32 23 324 8 15 359 14 32 10 71 144 106 296 156 124 134 162 59 20 341 303 297 287 267 269 288 83 37 70 103 114 112 125 199 168 154 163 250 258 238 236 255 265 270 272 70 93 259 2 67 55 44 51 60 90 147 249 303 40 79 97 98 99
328 329 336 346 352 357 1 1 356 351 351 352 343 336 349 8 5 6 359 319 335 313 316 342 18 46 328 342 348 341 341 31 46 334 221 229 273 247 102 82 1 47 80 5 13 302 268 277 279 267 88 34 117 107 129 160 192 257 194 153 175 187 190 197 217 260 265 244 245 131 91 307 44 78 50 30 52 109 155 186 296 18 47 64 83 94 97
322 323 329 341 350 356 0 1 359 352 350 353 348 342 352 11 14 16 18 8 332 297 311 354 6 359 349 345 348 2 350 333 356 327 308 276 275 322 69 28 339 36 129 73 10 266 261 312 332 330 81 166 105 61 131 159 187 211 178 294 231 176 158 189 195 214 231 233 258 140 167 297 42 89 49 23 81 169 178 67 51 49 52 62 78 88 91
315 314 321 335 346 355 359 1 0 352 348 352 348 342 353 14 16 10 3 351 318 274 330 356 348 336 331 338 348 352 343 355 25 14 351 359 12 30 56 294 278 66 95 315 299 303 340 350 337 344 11 60 90 128 137 131 229 220 169 8 323 91 137 198 196 96 171 174 231 230 211 55 65 88 97 75 108 130 102 78 66 57 58 64 70 69 74
311 306 312 327 341 352 358 360 360 352 344 346 347 336 334 349 359 359 349 331 283 258 287 305 307 300 298 310 321 323 330 3 40 35 8 5 358 23 150 222 264 248 74 15 342 7 11 356 353 359 348 352 15 311 156 140 230 231 137 121 342 354 130 163 277 333 111 143 183 241 247 76 83 100 120 105 81 68 84 93 80 68 78 85 85 77 69
307 299 303 318 333 347 356 358 359 355 343 341 346 337 327 341 355 357 346 323 275 269 278 279 277 271 267 265 252 249 307 354 48 64 53 37 321 276 109 46 335 357 51 56 44 29 22 4 7 7 314 319 7 345 322 269 240 334 135 178 218 144 124 136 319 345 65 122 160 175 155 113 108 110 109 98 83 64 74 87 83 78 83 86 100 108 96
302 294 295 309 326 340 351 356 358 354 340 333 338 337 334 351 3 359 348 327 295 308 290 267 258 262 280 292 226 206 236 276 87 73 58 56 32 11 25 18 3 33 44 46 48 45 41 336 345 352 303 328 2 338 323 359 34 355 335 234 230 268 96 104 82 56 53 68 167 155 137 126 120 115 112 109 105 81 61 76 87 91 91 89 93 102 103
298 289 287 299 320 334 344 353 359 355 340 329 328 326 324 349 3 358 345 318 309 337 314 275 310 351 6 10 332 215 202 169 148 153 184 163 144 144 353 56 83 85 57 27 29 36 39 311 334 317 300 349 16 8 354 24 48 340 350 1 303 338 14 34 189 193 131 154 142 91 100 120 123 123 131 137 130 107 80 79 83 72 78 92 95 96 105
295 284 279 290 313 327 339 351 357 355 341 325 319 313 306 332 0 360 348 327 304 290 260 270 340 359 354 329 300 86 94 113 142 167 180 174 174 195 176 85 87 82 56 35 41 43 26 346 354 317 294 2 22 359 348 11 352 323 348 348 308 325 354 349 248 241 224 158 29 25 73 103 78 73 98 128 137 128 117 115 117 108 107 118 125 131 142
292 279 272 283 307 322 335 348 354 351 340 325 317 310 300 314 10 7 352 341 322 282 269 293 328 357 343 321 314 72 103 159 274 211 203 213 206 198 181 133 123 119 92 72 102 122 160 274 297 306 328 7 359 328 329 353 350 333 297 324 351 25 338 333 355 6 224 266 1 356 108 117 47 30 46 60 85 106 117 136 148 153 154 150 153 165 171
290 277 269 278 300 319 331 342 347 345 333 322 317 307 294 305 36 7 343 350 344 302 339 318 298 315 324 314 309 338 165 225 258 245 263 264 237 207 188 155 142 149 136 129 232 143 128 304 334 15 28 39 354 340 345 341 325 282 255 342 11 40 330 346 30 64 86 53 12 356 81 101 40 15 22 27 37 62 90 128 161 175 179 171 166 173 178
287 272 263 273 297 316 326 335 340 337 332 333 331 313 302 59 64 15 329 11 3 309 288 278 276 291 313 304 301 319 318 304 349 313 296 300 295 248 165 128 96 54 83 77 44 60 66 41 55 67 77 183 200 355 2 330 272 229 146 66 52 29 357 31 77 96 60 30 9 2 24 47 21 8 8 6 13 31 45 42 50 180 191 190 187 187 188
280 266 262 272 295 311 318 325 329 327 338 4 354 317 242 101 72 356 326 54 25 326 311 291 287 324 335 306 287 297 297 234 105 16 27 38 29 28 59 78 64 48 65 77 75 77 57 9 71 96 179 194 172 140 169 210 249 229 172 147 138 169 317 358 86 120 106 52 13 1 350 336 337 343 340 356 15 22 22 15 12 359 311 257 208 185 178
270 260 261 273 293 306 310 313 314 308 349 45 11 317 199 149 341 334 14 65 39 322 297 275 273 297 319 312 324 341 342 14 75 60 56 58 48 44 60 69 63 62 74 71 77 95 129 200 126 137 208 183 151 179 206 222 261 246 179 160 159 172 216 298 315 124 131 138 159 264 274 267 273 292 282 11 34 25 355 334 341 343 339 333 327 201 164
261 254 259 276 295 301 302 303 298 257 187 171 270 278 270 331 320 319 324 16 331 297 282 281 285 290 302 326 356 359 358 16 64 63 45 44 39 39 58 64 55 73 89 89 101 140 179 182 155 162 176 134 130 201 223 220 244 247 194 150 138 138 162 229 271 253 148 133 164 199 233 246 269 11 2 21 35 31 343 318 320 326 333 331 321 310 248
247 248 260 279 293 297 296 301 294 240 216 233 259 260 222 40 358 324 273 199 287 277 271 279 278 285 352 304 332 3 5 12 53 39 1 9 18 8 74 79 55 75 112 124 158 188 219 178 133 113 101 111 135 256 256 234 241 252 239 166 142 187 221 213 221 240 56 51 57 107 25 335 352 359 346 334 325 301 268 276 297 309 323 327 315 296 260
232 247 267 283 292 291 287 313 63 141 240 265 244 188 138 27 13 15 167 140 292 267 258 289 277 276 30 316 268 8 20 18 43 16 344 340 346 337 107 85 41 43 156 165 166 145 214 207 133 111 124 142 146 239 256 249 253 272 270 141 142 192 247 236 133 99 84 58 30 41 11 324 301 295 297 301 306 304 287 269 272 283 291 296 295 287 272
229 255 278 286 282 263 217 139 104 354 289 272 184 154 86 359 10 146 157 121 309 252 213 148 280 293 6 302 262 15 29 15 267 91 26 328 333 350 64 94 54 170 159 161 182 186 189 158 139 161 150 125 151 230 266 298 327 351 11 48 101 113 304 305 56 117 144 204 249 256 262 265 263 269 288 304 337 343 328 311 298 288 277 271 266 265 271
245 269 285 291 274 151 190 230 243 266 277 252 102 47 357 6 53 151 175 207 266 265 276 74 229 236 230 266 277 39 36 315 178 88 68 50 353 21 36 240 227 166 137 201 216 197 172 135 173 204 137 107 121 314 347 354 352 2 17 15 23 40 356 299 304 9 2 272 272 266 264 268 277 319 337 323 311 349 334 315 307 294 279 279 275 264 275
258 253 139 98 83 76 245 239 220 197 198 259 342 322 317 10 124 176 215 219 215 216 235 303 264 191 179 247 260 122 144 224 163 121 91 223 179 132 155 200 217 170 185 210 209 159 132 156 224 245 125 102 30 4 9 2 353 358 7 354 350 346 285 288 340 356 326 307 325 347 343 339 343 349 338 328 327 329 312 291 298 293 276 274 285 287 327
215 147 126 121 246 266 231 198 163 149 194 329 334 299 244 194 178 200 203 185 179 179 192 257 259 170 182 245 194 149 158 234 200 165 173 224 183 153 191 208 227 299 239 210 130 100 114 185 222 211 79 61 31 18 14 14 15 10 359 355 359 346 333 351 2 345 314 308 342 10 359 340 326 315 304 289 280 277 255 228 247 270 263 248 235 220 210
123 124 143 240 249 236 95 129 127 82 22 327 275 239 212 203 211 210 172 157 161 168 186 215 213 186 200 228 199 166 189 261 263 188 187 205 189 183 247 227 211 264 256 238 109 115 195 243 202 141 85 22 2 359 0 29 48 28 7 8 2 342 333 348 351 334 327 326 322 317 302 287 289 297 298 282 267 268 255 225 224 238 234 216 202 198 194
145 212 242 233 158 116 97 112 139 121 354 236 218 222 229 211 209 187 144 167 189 179 182 206 214 202 207 224 226 189 202 244 279 279 190 179 176 209 228 196 155 237 256 251 140 188 227 293 66 105 90 20 302 300 306 321 99 90 50 339 302 298 297 297 293 294 298 304 305 305 300 289 282 287 293 292 291 291 278 250 227 212 203 200 197 183 162
231 247 266 346 29 120 128 134 178 210 242 241 215 219 236 207 192 190 208 208 205 195 193 200 199 193 203 215 218 187 181 216 272 285 210 174 170 224 228 200 166 251 258 205 149 165 157 106 47 63 93 183 245 274 294 293 270 221 224 224 234 254 266 272 277 284 285 279 273 281 286 286 285 284 286 290 292 289 285 280 253 213 204 208 206 188 167
302 298 311 319 311 230 180 193 213 219 242 281 288 270 260 216 148 156 246 249 268 223 215 216 213 175 181 194 197 164 172 201 235 256 221 209 197 204 239 177 146 223 264 205 149 137 118 129 141 111 144 205 223 233 247 256 252 240 240 241 241 245 254 261 269 275 278 277 273 273 280 286 289 287 282 279 277 278 281 281 264 230 212 205 195 179 168
275 286 293 290 267 219 196 214 213 199 288 354 49 337 284 244 162 148 224 224 252 244 204 192 203 183 149 139 82 58 83 156 209 232 219 194 170 191 236 227 185 200 228 220 161 139 122 117 138 165 196 208 210 216 233 251 262 262 262 265 265 264 265 270 272 272 276 284 292 294 292 288 288 288 285 280 279 283 281 275 265 244 212 187 172 164 158
262 261 269 264 236 170 96 324 233 109 1 302 195 255 268 239 169 142 197 186 216 227 165 153 197 227 170 148 156 132 121 151 215 247 227 188 183 211 233 241 214 195 205 212 167 135 117 108 133 167 197 208 213 235 253 265 271 272 274 279 282 284 286 290 292 292 292 294 296 295 290 284 280 282 287 290 291 289 285 283 279 251 198 171 159 155 152
281 218 173 334 312 25 67 322 261 210 223 233 223 245 301 332 35 117 213 210 226 226 182 159 196 244 230 179 182 185 164 150 171 204 207 210 219 215 218 236 230 208 226 237 185 127 117 130 145 144 137 342 317 296 298 304 307 305 303 297 294 296 296 294 294 296 294 290 287 284 282 282 280 276 279 284 284 282 283 282 256 204 180 165 155 155 157
270 223 136 74 312 289 232 241 243 221 223 235 230 345 1 3 19 306 258 249 247 246 197 132 200 247 240 204 188 183 168 161 174 189 184 203 236 220 195 210 236 236 246 264 91 101 106 109 104 90 51 4 342 333 334 336 331 321 312 303 297 296 294 289 289 289 287 286 286 282 278 279 280 278 277 277 275 277 285 276 221 187 175 164 156 158 160
264 272 187 127 260 258 222 216 229 241 264 317 9 55 79 260 275 275 271 264 259 2 48 77 240 252 249 235 254 246 169 152 176 185 168 186 257 249 204 218 242 250 264 36 88 101 106 95 78 60 35 6 347 339 337 333 323 314 308 304 299 296 292 288 283 279 274 272 272 272 273 275 276 276 277 274 267 264 268 251 205 187 178 166 158 157 158
277 303 296 127 152 238 231 227 228 258 327 336 334 150 138 105 269 264 268 279 344 32 5 273 257 251 207 172 269 312 349 120 197 205 172 184 234 231 229 237 239 255 50 75 97 97 89 88 84 64 30 6 351 341 336 329 320 316 313 309 304 300 295 286 278 277 279 275 268 260 260 265 269 271 272 271 266 254 234 206 189 182 174 163 153 148 143
268 279 258 232 267 264 262 265 249 153 203 293 282 251 142 34 251 254 271 301 14 9 277 270 286 343 144 148 60 334 320 292 255 216 205 232 234 234 267 299 337 48 59 73 90 88 83 91 90 65 30 9 353 339 332 328 325 321 318 313 308 305 300 292 284 283 283 281 274 262 253 254 260 263 254 235 224 225 209 190 180 174 167 157 146 137 131
267 263 238 249 269 277 284 288 281 208 130 288 288 295 310 255 254 279 323 333 315 270 265 260 228 144 177 117 91 293 276 282 290 255 245 253 261 272 8 29 47 78 91 90 88 89 89 82 68 49 19 0 348 336 332 333 332 328 322 317 313 311 306 300 295 286 275 271 272 267 257 252 252 245 217 184 167 168 178 172 163 158 153 145 138 135 135
292 276 249 241 252 265 280 303 334 357 353 324 306 295 243 239 234 210 354 298 280 268 255 233 209 202 179 131 140 239 259 96 252 244 232 247 333 4 54 76 81 96 105 102 96 98 93 71 59 47 11 352 346 339 338 341 340 337 332 326 321 317 313 309 307 299 282 273 271 262 254 255 247 215 201 197 183 167 152 136 133 134 135 137 141 145 148
253 272 273 264 261 264 273 346 46 1 317 307 305 290 274 270 217 158 181 250 272 275 273 264 227 208 92 95 160 259 288 245 256 259 245 75 27 30 78 98 95 96 105 106 101 97 90 76 70 61 13 3 0 352 350 350 349 347 344 337 330 327 323 320 320 320 311 300 287 252 234 236 202 175 176 180 177 168 158 149 149 153 158 162 165 165 162